TimeSAST,TemperatureF,Dew PointF,Humidity,Sea Level PressureIn,VisibilityMPH,Wind Direction,Wind SpeedMPH,Gust SpeedMPH,PrecipitationIn,Events,Conditions,WindDirDegrees,DateUTC
12:00 AM,82.4,48.2,30,29.83,-9999.0,West,5.8,-,N/A,,Unknown,280,2013-02-18 22:00:00
1:00 AM,82.4,50.0,32,29.83,6.2,West,15.0,-,N/A,,Mostly Cloudy,280,2013-02-18 23:00:00
2:00 AM,80,52,27,,25,SSE,6.9,,,,Scattered Clouds,160,2013-02-19 00:00:00
2:00 AM,78.8,51.8,39,29.83,6.2,SSE,6.9,-,N/A,,Mostly Cloudy,160,2013-02-19 00:00:00
3:00 AM,77.0,53.6,44,29.80,6.2,SE,5.8,-,N/A,,Scattered Clouds,140,2013-02-19 01:00:00
4:00 AM,75.2,53.6,47,29.83,6.2,Calm,Calm,-,N/A,,Partly Cloudy,0,2013-02-19 02:00:00
5:00 AM,74,54,40,,25,NW,8.1,,,,Scattered Clouds,320,2013-02-19 03:00:00
5:00 AM,73.4,53.6,50,29.86,6.2,NW,8.1,-,N/A,,Partly Cloudy,320,2013-02-19 03:00:00
6:00 AM,71.6,55.4,57,29.86,6.2,North,3.5,-,N/A,,Partly Cloudy,360,2013-02-19 04:00:00
6:50 AM,75.2,53.6,47,29.89,6.2,NW,8.1,-,N/A,,Scattered Clouds,310,2013-02-19 04:50:00
7:00 AM,75.2,55.4,50,29.92,6.2,NW,8.1,-,N/A,,Scattered Clouds,310,2013-02-19 05:00:00
8:00 AM,78,56,36,,25,Calm,Calm,,,,Scattered Clouds,,2013-02-19 06:00:00
8:00 AM,77.0,55.4,47,29.92,6.2,SSE,1.2,-,N/A,,Scattered Clouds,160,2013-02-19 06:00:00
9:00 AM,78.8,55.4,44,29.92,6.2,SE,2.3,-,N/A,,Scattered Clouds,130,2013-02-19 07:00:00
10:00 AM,82.4,53.6,37,29.92,6.2,SW,3.5,-,N/A,,Scattered Clouds,230,2013-02-19 08:00:00
11:00 AM,89,53,19,,25,North,3.5,,,,Scattered Clouds,10,2013-02-19 09:00:00
11:00 AM,87.8,51.8,29,29.89,6.2,North,3.5,-,N/A,,Scattered Clouds,10,2013-02-19 09:00:00
12:00 PM,87.8,48.2,25,29.89,6.2,NNW,6.9,-,N/A,,Scattered Clouds,340,2013-02-19 10:00:00
1:00 PM,93.2,48.2,21,29.86,6.2,West,8.1,-,N/A,,Scattered Clouds,280,2013-02-19 11:00:00
2:00 PM,95.0,48.2,20,29.83,6.2,WNW,9.2,21.9,N/A,,Scattered Clouds,300,2013-02-19 12:00:00
3:00 PM,93.2,44.6,19,29.83,6.2,West,13.8,-,N/A,,Scattered Clouds,280,2013-02-19 13:00:00
4:00 PM,96.8,41.0,15,29.83,6.2,West,12.7,-,N/A,,Scattered Clouds,270,2013-02-19 14:00:00
5:00 PM,97,41,7,,25,WSW,15.0,,,,Scattered Clouds,250,2013-02-19 15:00:00
5:00 PM,96.8,39.2,14,29.80,6.2,WSW,13.8,-,N/A,,Scattered Clouds,250,2013-02-19 15:00:00
6:00 PM,91.4,37.4,15,29.80,6.2,SW,12.7,-,N/A,,Partly Cloudy,220,2013-02-19 16:00:00
7:00 PM,89.6,39.2,17,29.80,6.2,SW,13.8,-,N/A,,Partly Cloudy,220,2013-02-19 17:00:00
8:00 PM,88,42,12,,25,SW,12.7,,,,Scattered Clouds,230,2013-02-19 18:00:00
8:00 PM,87.8,41.0,19,29.86,6.2,SW,12.7,-,N/A,,Partly Cloudy,230,2013-02-19 18:00:00
9:00 PM,86.0,37.4,18,29.89,6.2,WSW,12.7,-,N/A,,Partly Cloudy,240,2013-02-19 19:00:00
10:00 PM,82.4,37.4,20,29.92,-9999.0,WSW,12.7,-,N/A,,Unknown,240,2013-02-19 20:00:00
11:00 PM,76,45,22,,,SSW,19.6,,,,,200,2013-02-19 21:00:00
11:00 PM,75.2,44.6,34,29.95,-9999.0,SSW,19.6,-,N/A,,Unknown,200,2013-02-19 21:00:00